| time (UTC) | temp F | wind direction | speed MPH | gust MPH | rain 1hr in | rain 24hr in | rain mn in | humidity % | barometer mb |
| 20260902222917 | 65 | 199 | 0.0 | 0.0 | 0.00 | 0.00 | 0.00 | 62 | 1021.4 |
| 20260902222410 | 65 | 199 | 0.0 | 0.0 | 0.00 | 0.00 | 0.00 | 62 | 1021.4 |
| 20260902221904 | 65 | 199 | 0.0 | 0.0 | 0.00 | 0.00 | 0.00 | 61 | 1021.4 |
| 20260902221623 | 65 | 199 | 0.0 | 0.0 | 0.00 | 0.00 | 0.00 | 61 | 1021.4 |
| 20260902220852 | 65 | 199 | 0.0 | 0.0 | 0.00 | 0.00 | 0.00 | 61 | 1021.4 |
| 20260902220347 | 65 | 199 | 0.0 | 0.0 | 0.00 | 0.00 | 0.00 | 61 | 1021.3 |
| 20260902215840 | 65 | 199 | 0.0 | 0.0 | 0.00 | 0.00 | 0.00 | 61 | 1021.3 |
| 20260902215558 | 65 | 199 | 0.0 | 0.0 | 0.00 | 0.00 | 0.00 | 60 | 1021.4 |
| 20260902214829 | 65 | 199 | 0.0 | 0.0 | 0.00 | 0.00 | 0.00 | 60 | 1021.4 |
| 20260902214322 | 66 | 199 | 0.0 | 0.0 | 0.00 | 0.00 | 0.00 | 60 | 1021.3 |
| 20260902214304 | 66 | 199 | 0.0 | 0.0 | 0.00 | 0.00 | 0.00 | 60 | 1021.5 |
| 20260902213310 | 66 | 199 | 0.0 | 0.0 | 0.00 | 0.00 | 0.00 | 60 | 1021.5 |
| 20260902212804 | 66 | 199 | 0.0 | 0.0 | 0.00 | 0.00 | 0.00 | 59 | 1021.4 |
| 20260902212258 | 66 | 199 | 0.0 | 0.0 | 0.00 | 0.00 | 0.00 | 59 | 1021.4 |
| 20260902211752 | 66 | 199 | 0.0 | 0.0 | 0.00 | 0.00 | 0.00 | 59 | 1021.4 |
| 20260902211247 | 66 | 199 | 0.0 | 0.0 | 0.00 | 0.00 | 0.00 | 58 | 1021.5 |
| 20260902210740 | 66 | 199 | 0.0 | 0.0 | 0.00 | 0.00 | 0.00 | 58 | 1021.5 |
| 20260902210234 | 66 | 199 | 0.0 | 0.0 | 0.00 | 0.00 | 0.00 | 59 | 1021.5 |
| 20260902205728 | 66 | 199 | 0.0 | 0.0 | 0.00 | 0.00 | 0.00 | 59 | 1021.4 |
| 20260902205228 | 66 | 199 | 0.0 | 0.0 | 0.00 | 0.00 | 0.00 | 60 | 1021.4 |
| 20260902204724 | 66 | 199 | 0.0 | 0.0 | 0.00 | 0.00 | 0.00 | 59 | 1021.6 |
| 20260902204224 | 66 | 199 | 0.0 | 0.0 | 0.00 | 0.00 | 0.00 | 59 | 1021.8 |
| 20260902203721 | 66 | 199 | 0.0 | 0.0 | 0.00 | 0.00 | 0.00 | 59 | 1022.0 |
| 20260902203220 | 66 | 199 | 0.0 | 0.0 | 0.00 | 0.00 | 0.00 | 59 | 1022.0 |
| 20260902203204 | 66 | 199 | 0.0 | 0.0 | 0.00 | 0.00 | 0.00 | 58 | 1022.0 |
| 20260902202219 | 67 | 199 | 0.0 | 0.0 | 0.00 | 0.00 | 0.00 | 58 | 1021.8 |
| 20260902201719 | 67 | 199 | 0.0 | 0.0 | 0.00 | 0.00 | 0.00 | 58 | 1021.8 |
| 20260902201441 | 67 | 199 | 0.0 | 0.0 | 0.00 | 0.00 | 0.00 | 57 | 1021.9 |
| 20260902200719 | 67 | 199 | 0.0 | 0.0 | 0.00 | 0.00 | 0.00 | 56 | 1021.9 |
| 20260902200220 | 67 | 192 | 0.0 | 0.0 | 0.00 | 0.00 | 0.00 | 57 | 1021.9 |
| 20260902195944 | 67 | 194 | 0.0 | 0.0 | 0.00 | 0.00 | 0.00 | 57 | 1022.0 |
| 20260902195220 | 67 | 194 | 0.0 | 0.0 | 0.00 | 0.00 | 0.00 | 57 | 1021.9 |
| 20260902194716 | 67 | 194 | 0.0 | 0.0 | 0.00 | 0.00 | 0.00 | 57 | 1022.0 |
| 20260902194433 | 67 | 194 | 0.0 | 0.0 | 0.00 | 0.00 | 0.00 | 57 | 1022.1 |
| 20260902193716 | 67 | 194 | 0.0 | 0.0 | 0.00 | 0.00 | 0.00 | 56 | 1022.3 |
| 20260902193441 | 67 | 227 | 0.0 | 0.0 | 0.00 | 0.00 | 0.00 | 56 | 1022.2 |
| 20260902192716 | 67 | 207 | 0.0 | 0.0 | 0.00 | 0.00 | 0.00 | 56 | 1022.3 |
| 20260902192439 | 67 | 207 | 0.0 | 0.0 | 0.00 | 0.00 | 0.00 | 57 | 1022.3 |
| 20260902191716 | 67 | 207 | 0.0 | 0.0 | 0.00 | 0.00 | 0.00 | 57 | 1022.2 |
| 20260902191214 | 67 | 207 | 0.0 | 0.0 | 0.00 | 0.00 | 0.00 | 58 | 1022.3 |
| 20260902190716 | 67 | 207 | 0.0 | 0.0 | 0.00 | 0.00 | 0.00 | 58 | 1022.4 |
| 20260902190216 | 67 | 207 | 0.0 | 0.0 | 0.00 | 0.00 | 0.00 | 57 | 1022.4 |
| 20260902185714 | 67 | 207 | 0.0 | 0.0 | 0.00 | 0.00 | 0.00 | 58 | 1022.5 |
| 20260902185216 | 67 | 207 | 0.0 | 0.0 | 0.00 | 0.00 | 0.00 | 58 | 1022.5 |
| 20260902184716 | 67 | 207 | 0.0 | 0.0 | 0.00 | 0.00 | 0.00 | 57 | 1022.6 |
| 20260902184214 | 67 | 207 | 0.0 | 0.0 | 0.00 | 0.00 | 0.00 | 57 | 1022.4 |
| 20260902183748 | 68 | 207 | 0.0 | 0.0 | 0.00 | 0.00 | 0.00 | 56 | 1022.4 |
| 20260902183737 | 67 | 207 | 0.0 | 0.0 | 0.00 | 0.00 | 0.00 | 57 | 1022.4 |
| 20260902182716 | 68 | 207 | 0.0 | 0.0 | 0.00 | 0.00 | 0.00 | 56 | 1022.4 |
| 20260902182215 | 68 | 207 | 0.0 | 0.0 | 0.00 | 0.00 | 0.00 | 56 | 1022.4 |
| 20260902181709 | 68 | 207 | 0.0 | 0.0 | 0.00 | 0.00 | 0.00 | 55 | 1022.4 |
| 20260902181210 | 68 | 207 | 0.0 | 0.0 | 0.00 | 0.00 | 0.00 | 55 | 1022.5 |
| 20260902180706 | 68 | 207 | 0.0 | 0.0 | 0.00 | 0.00 | 0.00 | 55 | 1022.5 |
| 20260902180206 | 68 | 207 | 0.0 | 0.0 | 0.00 | 0.00 | 0.00 | 55 | 1022.6 |
| 20260902175707 | 68 | 207 | 0.0 | 0.0 | 0.00 | 0.00 | 0.00 | 54 | 1022.6 |
| 20260902175204 | 68 | 207 | 0.0 | 0.0 | 0.00 | 0.00 | 0.00 | 54 | 1022.7 |
| 20260902174702 | 68 | 207 | 0.0 | 0.0 | 0.00 | 0.00 | 0.00 | 54 | 1022.6 |
| 20260902174200 | 68 | 207 | 0.0 | 0.0 | 0.00 | 0.00 | 0.00 | 55 | 1022.6 |
| 20260902173659 | 68 | 207 | 0.0 | 0.0 | 0.00 | 0.00 | 0.00 | 55 | 1022.6 |
| 20260902173419 | 68 | 207 | 0.0 | 0.0 | 0.00 | 0.00 | 0.00 | 54 | 1022.4 |
| 20260902172654 | 68 | 207 | 0.0 | 0.0 | 0.00 | 0.00 | 0.00 | 53 | 1022.4 |
| 20260902172416 | 68 | 207 | 0.0 | 0.0 | 0.00 | 0.00 | 0.00 | 54 | 1022.5 |
| 20260902171651 | 68 | 208 | 0.0 | 0.0 | 0.00 | 0.00 | 0.00 | 54 | 1022.3 |
| 20260902171150 | 68 | 208 | 0.0 | 0.0 | 0.00 | 0.00 | 0.00 | 54 | 1022.4 |
| 20260902170646 | 68 | 217 | 0.0 | 0.0 | 0.00 | 0.00 | 0.00 | 54 | 1022.2 |
| 20260902170147 | 68 | 216 | 0.0 | 0.0 | 0.00 | 0.00 | 0.00 | 53 | 1022.2 |
| 20260902165647 | 68 | 217 | 0.0 | 0.0 | 0.00 | 0.00 | 0.00 | 54 | 1022.2 |
| 20260902165144 | 68 | 184 | 0.0 | 0.0 | 0.00 | 0.00 | 0.00 | 54 | 1022.1 |
| 20260902164643 | 68 | 184 | 0.0 | 0.0 | 0.00 | 0.00 | 0.00 | 54 | 1022.2 |
| 20260902164141 | 68 | 184 | 0.0 | 0.0 | 0.00 | 0.00 | 0.00 | 52 | 1022.4 |
| 20260902163903 | 68 | 188 | 0.0 | 0.0 | 0.00 | 0.00 | 0.00 | 52 | 1022.5 |
| 20260902163141 | 68 | 188 | 0.0 | 0.0 | 0.00 | 0.00 | 0.00 | 52 | 1022.6 |
| 20260902162634 | 68 | 188 | 0.0 | 0.0 | 0.00 | 0.00 | 0.00 | 53 | 1022.7 |
| 20260902162127 | 68 | 188 | 0.0 | 0.0 | 0.00 | 0.00 | 0.00 | 52 | 1022.7 |
| 20260902161621 | 69 | 187 | 0.0 | 0.0 | 0.00 | 0.00 | 0.00 | 51 | 1022.8 |
| 20260902161115 | 69 | 187 | 0.0 | 0.0 | 0.00 | 0.00 | 0.00 | 50 | 1022.9 |
| 20260902160608 | 69 | 210 | 0.0 | 0.0 | 0.00 | 0.00 | 0.00 | 49 | 1022.9 |
| 20260902160103 | 69 | 223 | 0.0 | 0.0 | 0.00 | 0.00 | 0.00 | 50 | 1022.8 |
| 20260902155558 | 69 | 223 | 0.0 | 0.0 | 0.00 | 0.00 | 0.00 | 49 | 1022.8 |
| 20260902155051 | 69 | 223 | 0.0 | 0.0 | 0.00 | 0.00 | 0.00 | 50 | 1022.9 |
| 20260902154803 | 69 | 214 | 0.0 | 0.0 | 0.00 | 0.00 | 0.00 | 51 | 1022.9 |
| 20260902154039 | 69 | 215 | 0.0 | 0.0 | 0.00 | 0.00 | 0.00 | 54 | 1022.9 |
| 20260902153533 | 69 | 215 | 0.0 | 0.0 | 0.00 | 0.00 | 0.00 | 54 | 1023.0 |
| 20260902153246 | 69 | 212 | 0.0 | 0.0 | 0.00 | 0.00 | 0.00 | 53 | 1023.1 |
| 20260902152521 | 68 | 212 | 0.0 | 0.0 | 0.00 | 0.00 | 0.00 | 53 | 1023.0 |
| 20260902152015 | 68 | 212 | 0.0 | 0.0 | 0.00 | 0.00 | 0.00 | 52 | 1023.0 |
| 20260902151509 | 68 | 212 | 0.0 | 0.0 | 0.00 | 0.00 | 0.00 | 55 | 1023.0 |
| 20260902151224 | 68 | 214 | 0.0 | 0.0 | 0.00 | 0.00 | 0.00 | 59 | 1022.8 |
| 20260902150718 | 68 | 214 | 0.0 | 0.0 | 0.00 | 0.00 | 0.00 | 60 | 1022.8 |
| 20260902145951 | 68 | 200 | 0.0 | 0.0 | 0.00 | 0.00 | 0.00 | 61 | 1022.8 |
| 20260902145445 | 67 | 200 | 0.0 | 0.0 | 0.00 | 0.00 | 0.00 | 61 | 1022.7 |
| 20260902144939 | 67 | 200 | 0.0 | 1.0 | 0.00 | 0.00 | 0.00 | 61 | 1022.7 |
| 20260902144656 | 67 | 200 | 0.0 | 1.0 | 0.00 | 0.00 | 0.00 | 61 | 1022.7 |
| 20260902143927 | 67 | 200 | 0.0 | 0.0 | 0.00 | 0.00 | 0.00 | 61 | 1022.7 |
| 20260902143421 | 66 | 200 | 0.0 | 0.0 | 0.00 | 0.00 | 0.00 | 61 | 1022.7 |
| 20260902142916 | 66 | 200 | 0.0 | 0.0 | 0.00 | 0.00 | 0.00 | 62 | 1022.6 |
| 20260902142856 | 66 | 200 | 0.0 | 0.0 | 0.00 | 0.00 | 0.00 | 62 | 1022.9 |
| 20260902142124 | 66 | 200 | 0.0 | 0.0 | 0.00 | 0.00 | 0.00 | 61 | 1022.9 |
| 20260902141356 | 65 | 200 | 0.0 | 0.0 | 0.00 | 0.00 | 0.00 | 62 | 1022.5 |
| 20260902140851 | 65 | 200 | 0.0 | 0.0 | 0.00 | 0.00 | 0.00 | 63 | 1022.6 |
| 20260902140345 | 65 | 200 | 0.0 | 0.0 | 0.00 | 0.00 | 0.00 | 62 | 1022.7 |
| 20260902135839 | 65 | 200 | 0.0 | 0.0 | 0.00 | 0.00 | 0.00 | 63 | 1022.6 |
| 20260902135333 | 65 | 200 | 0.0 | 0.0 | 0.00 | 0.00 | 0.00 | 62 | 1022.6 |
| 20260902134827 | 65 | 200 | 0.0 | 0.0 | 0.00 | 0.00 | 0.00 | 63 | 1022.5 |
| 20260902134321 | 65 | 200 | 0.0 | 0.0 | 0.00 | 0.00 | 0.00 | 63 | 1022.4 |
| 20260902134040 | 64 | 200 | 0.0 | 0.0 | 0.00 | 0.00 | 0.00 | 64 | 1022.5 |
| 20260902133309 | 64 | 302 | 0.0 | 0.0 | 0.00 | 0.00 | 0.00 | 64 | 1022.6 |
| 20260902132803 | 64 | 302 | 0.0 | 0.0 | 0.00 | 0.00 | 0.00 | 64 | 1022.5 |
| 20260902132257 | 64 | 301 | 0.0 | 0.0 | 0.00 | 0.00 | 0.00 | 65 | 1022.5 |
| 20260902131751 | 64 | 301 | 0.0 | 0.0 | 0.00 | 0.00 | 0.00 | 65 | 1022.6 |
| 20260902131245 | 64 | 301 | 0.0 | 0.0 | 0.00 | 0.00 | 0.00 | 66 | 1022.7 |
| 20260902131227 | 63 | 301 | 0.0 | 0.0 | 0.00 | 0.00 | 0.00 | 66 | 1022.5 |
| 20260902130233 | 63 | 301 | 0.0 | 0.0 | 0.00 | 0.00 | 0.00 | 67 | 1022.6 |
| 20260902125948 | 63 | 301 | 0.0 | 0.0 | 0.00 | 0.00 | 0.00 | 67 | 1022.6 |
| 20260902125221 | 63 | 301 | 0.0 | 0.0 | 0.00 | 0.00 | 0.00 | 67 | 1022.6 |
| 20260902124715 | 63 | 301 | 0.0 | 0.0 | 0.00 | 0.00 | 0.00 | 67 | 1022.5 |
| 20260902124209 | 63 | 301 | 0.0 | 0.0 | 0.00 | 0.00 | 0.00 | 67 | 1022.4 |
| 20260902123704 | 63 | 301 | 0.0 | 0.0 | 0.00 | 0.00 | 0.00 | 67 | 1022.5 |
| 20260902123157 | 63 | 302 | 0.0 | 0.0 | 0.00 | 0.00 | 0.00 | 68 | 1022.7 |
| 20260902122652 | 63 | 302 | 0.0 | 0.0 | 0.00 | 0.00 | 0.00 | 68 | 1022.6 |
| 20260902122145 | 63 | 302 | 0.0 | 0.0 | 0.00 | 0.00 | 0.00 | 68 | 1022.6 |
| 20260902121639 | 63 | 302 | 0.0 | 0.0 | 0.00 | 0.00 | 0.00 | 68 | 1022.7 |
| 20260902121133 | 62 | 302 | 0.0 | 0.0 | 0.00 | 0.00 | 0.00 | 68 | 1022.7 |
| 20260902120628 | 62 | 302 | 0.0 | 0.0 | 0.00 | 0.00 | 0.00 | 69 | 1022.8 |
| 20260902120121 | 62 | 302 | 0.0 | 0.0 | 0.00 | 0.00 | 0.00 | 69 | 1022.7 |
| 20260902115615 | 62 | 302 | 0.0 | 0.0 | 0.00 | 0.00 | 0.00 | 69 | 1022.5 |
| 20260902115333 | 62 | 302 | 0.0 | 0.0 | 0.00 | 0.00 | 0.00 | 69 | 1022.5 |
| 20260902114603 | 62 | 302 | 0.0 | 0.0 | 0.00 | 0.00 | 0.00 | 69 | 1022.6 |
| 20260902114057 | 62 | 302 | 0.0 | 0.0 | 0.00 | 0.00 | 0.00 | 70 | 1022.6 |
| 20260902113551 | 62 | 302 | 0.0 | 0.0 | 0.00 | 0.00 | 0.00 | 70 | 1022.5 |
| 20260902113045 | 62 | 302 | 0.0 | 0.0 | 0.00 | 0.00 | 0.00 | 69 | 1022.5 |
| 20260902112539 | 62 | 302 | 0.0 | 0.0 | 0.00 | 0.00 | 0.00 | 69 | 1022.6 |
| 20260902112032 | 62 | 302 | 0.0 | 0.0 | 0.00 | 0.00 | 0.00 | 70 | 1022.5 |
| 20260902111527 | 62 | 302 | 0.0 | 0.0 | 0.00 | 0.00 | 0.00 | 70 | 1022.3 |
| 20260902111021 | 62 | 302 | 0.0 | 0.0 | 0.00 | 0.00 | 0.00 | 70 | 1022.4 |
| 20260902110515 | 62 | 302 | 0.0 | 0.0 | 0.00 | 0.00 | 0.00 | 70 | 1022.2 |
| 20260902110010 | 62 | 302 | 0.0 | 0.0 | 0.00 | 0.00 | 0.00 | 70 | 1022.2 |
| 20260902105504 | 62 | 302 | 0.0 | 0.0 | 0.00 | 0.00 | 0.00 | 70 | 1022.1 |
| 20260902104957 | 62 | 302 | 0.0 | 0.0 | 0.00 | 0.00 | 0.00 | 70 | 1022.0 |
| 20260902104451 | 62 | 302 | 0.0 | 0.0 | 0.00 | 0.00 | 0.00 | 70 | 1022.1 |
| 20260902103945 | 62 | 302 | 0.0 | 0.0 | 0.00 | 0.00 | 0.00 | 70 | 1022.0 |
| 20260902103439 | 62 | 302 | 0.0 | 0.0 | 0.00 | 0.00 | 0.00 | 70 | 1021.9 |
| 20260902103158 | 62 | 302 | 0.0 | 0.0 | 0.00 | 0.00 | 0.00 | 70 | 1021.9 |
| 20260902102427 | 62 | 302 | 0.0 | 0.0 | 0.00 | 0.00 | 0.00 | 70 | 1021.9 |
| 20260902101921 | 62 | 302 | 0.0 | 0.0 | 0.00 | 0.00 | 0.00 | 69 | 1021.9 |
| 20260902101421 | 62 | 306 | 0.0 | 0.0 | 0.00 | 0.00 | 0.00 | 70 | 1021.9 |
| 20260902100918 | 62 | 306 | 0.0 | 0.0 | 0.00 | 0.00 | 0.00 | 71 | 1021.9 |
| 20260902100417 | 62 | 306 | 0.0 | 0.0 | 0.00 | 0.00 | 0.00 | 71 | 1021.8 |
| 20260902095915 | 62 | 306 | 0.0 | 0.0 | 0.00 | 0.00 | 0.00 | 71 | 1021.7 |
| 20260902095412 | 62 | 306 | 0.0 | 0.0 | 0.00 | 0.00 | 0.00 | 71 | 1021.7 |
| 20260902094911 | 62 | 306 | 0.0 | 0.0 | 0.00 | 0.00 | 0.00 | 71 | 1021.6 |
| 20260902094636 | 62 | 306 | 0.0 | 0.0 | 0.00 | 0.00 | 0.00 | 71 | 1021.7 |
| 20260902093911 | 62 | 306 | 0.0 | 0.0 | 0.00 | 0.00 | 0.00 | 71 | 1021.7 |
| 20260902093407 | 63 | 306 | 0.0 | 0.0 | 0.00 | 0.00 | 0.00 | 71 | 1021.6 |
| 20260902092908 | 63 | 306 | 0.0 | 0.0 | 0.00 | 0.00 | 0.00 | 71 | 1021.6 |
| 20260902092409 | 63 | 306 | 0.0 | 0.0 | 0.00 | 0.00 | 0.00 | 72 | 1021.7 |
| 20260902091908 | 63 | 306 | 0.0 | 0.0 | 0.00 | 0.00 | 0.00 | 72 | 1021.7 |
| 20260902091408 | 63 | 306 | 0.0 | 0.0 | 0.00 | 0.00 | 0.00 | 72 | 1021.7 |
| 20260902090906 | 63 | 306 | 0.0 | 0.0 | 0.00 | 0.00 | 0.00 | 72 | 1021.7 |
| 20260902090900 | 63 | 306 | 0.0 | 0.0 | 0.00 | 0.00 | 0.00 | 72 | 1021.7 |
| 20260902085904 | 63 | 306 | 0.0 | 0.0 | 0.00 | 0.00 | 0.00 | 71 | 1021.6 |
| 20260902085403 | 63 | 306 | 0.0 | 0.0 | 0.00 | 0.00 | 0.00 | 71 | 1021.8 |
| 20260902084903 | 63 | 306 | 0.0 | 0.0 | 0.00 | 0.00 | 0.00 | 71 | 1021.7 |
| 20260902084405 | 63 | 306 | 0.0 | 0.0 | 0.00 | 0.00 | 0.00 | 71 | 1021.7 |
| 20260902083905 | 63 | 306 | 0.0 | 0.0 | 0.00 | 0.00 | 0.00 | 71 | 1021.7 |
| 20260902083403 | 63 | 306 | 0.0 | 0.0 | 0.00 | 0.00 | 0.00 | 70 | 1021.7 |
| 20260902082905 | 63 | 306 | 0.0 | 0.0 | 0.00 | 0.00 | 0.00 | 70 | 1021.7 |
| 20260902082403 | 63 | 306 | 0.0 | 0.0 | 0.00 | 0.00 | 0.00 | 69 | 1021.7 |
| 20260902082350 | 63 | 306 | 0.0 | 0.0 | 0.00 | 0.00 | 0.00 | 69 | 1021.7 |
| 20260902081404 | 63 | 306 | 0.0 | 0.0 | 0.00 | 0.00 | 0.00 | 69 | 1021.7 |
| 20260902080905 | 63 | 306 | 0.0 | 0.0 | 0.00 | 0.00 | 0.00 | 69 | 1021.6 |
| 20260902080404 | 63 | 306 | 0.0 | 0.0 | 0.00 | 0.00 | 0.00 | 69 | 1021.7 |
| 20260902075903 | 63 | 306 | 0.0 | 0.0 | 0.00 | 0.00 | 0.00 | 69 | 1021.6 |
| 20260902075405 | 63 | 306 | 0.0 | 0.0 | 0.00 | 0.00 | 0.00 | 68 | 1021.5 |
| 20260902074903 | 63 | 306 | 0.0 | 0.0 | 0.00 | 0.00 | 0.00 | 69 | 1021.4 |
| 20260902074404 | 63 | 306 | 0.0 | 0.0 | 0.00 | 0.00 | 0.00 | 69 | 1021.3 |
| 20260902073858 | 63 | 306 | 0.0 | 0.0 | 0.00 | 0.00 | 0.00 | 69 | 1021.4 |
| 20260902073352 | 63 | 306 | 0.0 | 0.0 | 0.00 | 0.00 | 0.00 | 69 | 1021.3 |
| 20260902073108 | 64 | 306 | 0.0 | 0.0 | 0.00 | 0.00 | 0.00 | 69 | 1021.4 |
| 20260902072340 | 64 | 306 | 0.0 | 0.0 | 0.00 | 0.00 | 0.00 | 69 | 1021.4 |
| 20260902071834 | 64 | 306 | 0.0 | 0.0 | 0.00 | 0.00 | 0.00 | 69 | 1021.3 |
| 20260902071328 | 64 | 306 | 0.0 | 0.0 | 0.00 | 0.00 | 0.00 | 69 | 1021.3 |
| 20260902071047 | 64 | 306 | 0.0 | 0.0 | 0.00 | 0.00 | 0.00 | 69 | 1021.3 |
| 20260902070316 | 64 | 306 | 0.0 | 0.0 | 0.00 | 0.00 | 0.00 | 69 | 1021.3 |
| 20260902065810 | 64 | 306 | 0.0 | 0.0 | 0.00 | 0.00 | 0.00 | 69 | 1021.2 |
| 20260902065306 | 64 | 306 | 0.0 | 0.0 | 0.00 | 0.00 | 0.00 | 68 | 1021.3 |
| 20260902064758 | 64 | 306 | 0.0 | 0.0 | 0.00 | 0.00 | 0.00 | 68 | 1021.3 |
| 20260902064253 | 64 | 306 | 0.0 | 0.0 | 0.00 | 0.00 | 0.00 | 68 | 1021.3 |
| 20260902063746 | 64 | 306 | 0.0 | 0.0 | 0.00 | 0.00 | 0.00 | 68 | 1021.0 |
| 20260902063240 | 64 | 306 | 0.0 | 0.0 | 0.00 | 0.00 | 0.00 | 68 | 1021.0 |
| 20260902062734 | 64 | 306 | 0.0 | 0.0 | 0.00 | 0.00 | 0.00 | 68 | 1021.0 |
| 20260902062229 | 64 | 306 | 0.0 | 0.0 | 0.00 | 0.00 | 0.00 | 68 | 1021.1 |
| 20260902061722 | 64 | 306 | 0.0 | 0.0 | 0.00 | 0.00 | 0.00 | 68 | 1021.2 |
| 20260902061433 | 64 | 306 | 0.0 | 0.0 | 0.00 | 0.00 | 0.00 | 68 | 1021.2 |
| 20260902060940 | 64 | 306 | 0.0 | 0.0 | 0.00 | 0.00 | 0.00 | 68 | 1021.1 |
| 20260902060204 | 64 | 306 | 0.0 | 0.0 | 0.00 | 0.00 | 0.00 | 68 | 1021.3 |
| 20260902055658 | 64 | 306 | 0.0 | 0.0 | 0.00 | 0.00 | 0.00 | 68 | 1021.2 |
| 20260902055420 | 64 | 306 | 0.0 | 0.0 | 0.00 | 0.00 | 0.00 | 68 | 1021.1 |
| 20260902054646 | 64 | 306 | 0.0 | 0.0 | 0.00 | 0.00 | 0.00 | 68 | 1021.1 |
| 20260902054409 | 64 | 306 | 0.0 | 0.0 | 0.00 | 0.00 | 0.00 | 68 | 1021.0 |
| 20260902053634 | 64 | 306 | 0.0 | 0.0 | 0.00 | 0.00 | 0.00 | 68 | 1021.0 |
| 20260902053128 | 64 | 306 | 0.0 | 0.0 | 0.00 | 0.00 | 0.00 | 68 | 1020.9 |
| 20260902052622 | 64 | 306 | 0.0 | 0.0 | 0.00 | 0.00 | 0.00 | 68 | 1020.9 |
| 20260902052335 | 64 | 306 | 0.0 | 0.0 | 0.00 | 0.00 | 0.00 | 68 | 1020.7 |
| 20260902051610 | 64 | 306 | 0.0 | 0.0 | 0.00 | 0.00 | 0.00 | 68 | 1020.7 |
| 20260902051104 | 64 | 306 | 0.0 | 0.0 | 0.00 | 0.00 | 0.00 | 68 | 1020.7 |
| 20260902050557 | 64 | 306 | 0.0 | 0.0 | 0.00 | 0.00 | 0.00 | 68 | 1020.6 |
| 20260902050315 | 64 | 306 | 0.0 | 0.0 | 0.00 | 0.00 | 0.00 | 68 | 1020.4 |
| 20260902045546 | 64 | 306 | 0.0 | 0.0 | 0.00 | 0.00 | 0.00 | 68 | 1020.2 |
| 20260902045040 | 64 | 306 | 0.0 | 0.0 | 0.00 | 0.00 | 0.00 | 68 | 1020.2 |
| 20260902044757 | 64 | 306 | 0.0 | 0.0 | 0.00 | 0.00 | 0.00 | 68 | 1020.2 |
| 20260902044028 | 64 | 306 | 0.0 | 0.0 | 0.00 | 0.00 | 0.00 | 69 | 1020.2 |
| 20260902043522 | 64 | 306 | 0.0 | 0.0 | 0.00 | 0.00 | 0.00 | 69 | 1020.2 |
| 20260902043233 | 64 | 306 | 0.0 | 0.0 | 0.00 | 0.00 | 0.00 | 69 | 1020.2 |
| 20260902042511 | 64 | 306 | 0.0 | 0.0 | 0.00 | 0.00 | 0.00 | 69 | 1020.4 |
| 20260902042004 | 64 | 306 | 0.0 | 0.0 | 0.00 | 0.00 | 0.00 | 69 | 1020.2 |
| 20260902041501 | 64 | 306 | 0.0 | 0.0 | 0.00 | 0.00 | 0.00 | 69 | 1020.2 |
| 20260902040952 | 64 | 306 | 0.0 | 0.0 | 0.00 | 0.00 | 0.00 | 69 | 1020.2 |
| 20260902040446 | 64 | 306 | 0.0 | 0.0 | 0.00 | 0.00 | 0.00 | 69 | 1020.2 |
| 20260902035940 | 64 | 306 | 0.0 | 0.0 | 0.00 | 0.00 | 0.00 | 69 | 1020.0 |
| 20260902035434 | 64 | 306 | 0.0 | 0.0 | 0.00 | 0.00 | 0.00 | 68 | 1019.8 |
| 20260902034928 | 64 | 306 | 0.0 | 0.0 | 0.00 | 0.00 | 0.00 | 68 | 1019.8 |
| 20260902034641 | 64 | 306 | 0.0 | 0.0 | 0.00 | 0.00 | 0.00 | 68 | 1019.9 |
| 20260902033914 | 64 | 306 | 0.0 | 0.0 | 0.00 | 0.00 | 0.00 | 68 | 1019.9 |
| 20260902033408 | 64 | 306 | 0.0 | 0.0 | 0.00 | 0.00 | 0.00 | 68 | 1019.8 |
| 20260902032902 | 64 | 306 | 0.0 | 0.0 | 0.00 | 0.00 | 0.00 | 68 | 1019.8 |
| 20260902032357 | 64 | 306 | 0.0 | 0.0 | 0.00 | 0.00 | 0.00 | 68 | 1019.9 |
| 20260902031850 | 64 | 306 | 0.0 | 0.0 | 0.00 | 0.00 | 0.00 | 67 | 1019.9 |
| 20260902031344 | 64 | 306 | 0.0 | 0.0 | 0.00 | 0.00 | 0.00 | 67 | 1020.0 |
| 20260902030838 | 64 | 306 | 0.0 | 0.0 | 0.00 | 0.00 | 0.00 | 67 | 1020.0 |
| 20260902030332 | 64 | 306 | 0.0 | 0.0 | 0.00 | 0.00 | 0.00 | 67 | 1019.9 |
| 20260902025829 | 64 | 306 | 0.0 | 0.0 | 0.00 | 0.00 | 0.00 | 67 | 1019.8 |
| 20260902025550 | 64 | 306 | 0.0 | 0.0 | 0.00 | 0.00 | 0.00 | 67 | 1019.6 |
| 20260902024814 | 64 | 306 | 0.0 | 0.0 | 0.00 | 0.00 | 0.00 | 67 | 1019.4 |
| 20260902024531 | 64 | 306 | 0.0 | 0.0 | 0.00 | 0.00 | 0.00 | 67 | 1019.4 |
| 20260902023802 | 64 | 306 | 0.0 | 0.0 | 0.00 | 0.00 | 0.00 | 67 | 1019.5 |
| 20260902023518 | 65 | 306 | 0.0 | 0.0 | 0.00 | 0.00 | 0.00 | 66 | 1019.5 |
| 20260902022750 | 65 | 306 | 0.0 | 0.0 | 0.00 | 0.00 | 0.00 | 66 | 1019.6 |
| 20260902022244 | 65 | 306 | 0.0 | 0.0 | 0.00 | 0.00 | 0.00 | 66 | 1019.5 |
| 20260902021738 | 65 | 306 | 0.0 | 0.0 | 0.00 | 0.00 | 0.00 | 66 | 1019.7 |
| 20260902021231 | 65 | 306 | 0.0 | 0.0 | 0.00 | 0.00 | 0.00 | 66 | 1019.7 |
| 20260902020943 | 65 | 306 | 0.0 | 0.0 | 0.00 | 0.00 | 0.00 | 66 | 1019.7 |
| 20260902020220 | 65 | 306 | 0.0 | 0.0 | 0.00 | 0.00 | 0.00 | 66 | 1019.7 |
| 20260902015714 | 65 | 306 | 0.0 | 0.0 | 0.00 | 0.00 | 0.00 | 66 | 1019.6 |
| 20260902015208 | 65 | 306 | 0.0 | 0.0 | 0.00 | 0.00 | 0.00 | 66 | 1019.5 |
| 20260902014702 | 65 | 306 | 0.0 | 0.0 | 0.00 | 0.00 | 0.00 | 66 | 1019.5 |
| 20260902014157 | 65 | 306 | 0.0 | 0.0 | 0.00 | 0.00 | 0.00 | 66 | 1019.6 |
| 20260902013650 | 65 | 306 | 0.0 | 0.0 | 0.00 | 0.00 | 0.00 | 66 | 1019.6 |
| 20260902013406 | 65 | 306 | 0.0 | 0.0 | 0.00 | 0.00 | 0.00 | 66 | 1019.7 |
| 20260902012639 | 65 | 306 | 0.0 | 0.0 | 0.00 | 0.00 | 0.00 | 66 | 1019.8 |
| 20260902012132 | 65 | 306 | 0.0 | 0.0 | 0.00 | 0.00 | 0.00 | 66 | 1019.8 |
| 20260902011851 | 65 | 306 | 0.0 | 0.0 | 0.00 | 0.00 | 0.00 | 66 | 1019.6 |
| 20260902011120 | 65 | 306 | 0.0 | 0.0 | 0.00 | 0.00 | 0.00 | 66 | 1019.7 |
| 20260902010614 | 65 | 306 | 0.0 | 0.0 | 0.00 | 0.00 | 0.00 | 66 | 1019.6 |
| 20260902010334 | 65 | 306 | 0.0 | 0.0 | 0.00 | 0.00 | 0.00 | 66 | 1019.7 |
| 20260902005602 | 65 | 306 | 0.0 | 0.0 | 0.00 | 0.00 | 0.00 | 66 | 1019.5 |
| 20260902005321 | 65 | 306 | 0.0 | 0.0 | 0.00 | 0.00 | 0.00 | 66 | 1019.5 |
| 20260902004550 | 65 | 306 | 0.0 | 0.0 | 0.00 | 0.00 | 0.00 | 66 | 1019.4 |
| 20260902004044 | 65 | 306 | 0.0 | 0.0 | 0.00 | 0.00 | 0.00 | 66 | 1019.4 |
| 20260902003803 | 65 | 306 | 0.0 | 0.0 | 0.00 | 0.00 | 0.00 | 66 | 1019.4 |
| 20260902003032 | 65 | 306 | 0.0 | 0.0 | 0.00 | 0.00 | 0.00 | 66 | 1019.3 |
| 20260902002526 | 66 | 306 | 0.0 | 0.0 | 0.00 | 0.00 | 0.00 | 66 | 1019.3 |
| 20260902002020 | 66 | 306 | 0.0 | 0.0 | 0.00 | 0.00 | 0.00 | 66 | 1019.3 |
| 20260902001736 | 66 | 306 | 0.0 | 0.0 | 0.00 | 0.00 | 0.00 | 66 | 1019.3 |
| 20260902001008 | 66 | 305 | 0.0 | 0.0 | 0.00 | 0.00 | 0.00 | 66 | 1019.2 |
| 20260902000503 | 66 | 305 | 0.0 | 0.0 | 0.00 | 0.00 | 0.00 | 66 | 1019.1 |
| 20260901235956 | 66 | 313 | 0.0 | 0.0 | 0.00 | 0.00 | 0.00 | 66 | 1019.1 |
| 20260901235450 | 66 | 249 | 0.0 | 0.0 | 0.00 | 0.00 | 0.00 | 66 | 1019.1 |
| 20260901235206 | 66 | 249 | 0.0 | 0.0 | 0.00 | 0.00 | 0.00 | 66 | 1019.0 |
| 20260901234438 | 66 | 249 | 0.0 | 0.0 | 0.00 | 0.00 | 0.00 | 66 | 1019.0 |
| 20260901233933 | 66 | 249 | 0.0 | 0.0 | 0.00 | 0.00 | 0.00 | 66 | 1019.0 |
| 20260901233436 | 66 | 249 | 0.0 | 0.0 | 0.00 | 0.00 | 0.00 | 66 | 1019.0 |
| 20260901232935 | 66 | 249 | 0.0 | 0.0 | 0.00 | 0.00 | 0.00 | 66 | 1019.0 |
| 20260901232433 | 67 | 249 | 0.0 | 0.0 | 0.00 | 0.00 | 0.00 | 66 | 1018.9 |
| 20260901231930 | 67 | 249 | 0.0 | 0.0 | 0.00 | 0.00 | 0.00 | 66 | 1019.0 |
| 20260901231428 | 67 | 249 | 0.0 | 0.0 | 0.00 | 0.00 | 0.00 | 65 | 1019.1 |
| 20260901230930 | 67 | 249 | 0.0 | 0.0 | 0.00 | 0.00 | 0.00 | 65 | 1019.1 |
| 20260901230428 | 67 | 249 | 0.0 | 0.0 | 0.00 | 0.00 | 0.00 | 65 | 1018.9 |
| 20260901225925 | 67 | 249 | 0.0 | 0.0 | 0.00 | 0.00 | 0.00 | 65 | 1018.9 |
| 20260901225427 | 67 | 249 | 0.0 | 0.0 | 0.00 | 0.00 | 0.00 | 65 | 1018.9 |
| 20260901224925 | 67 | 249 | 0.0 | 0.0 | 0.00 | 0.00 | 0.00 | 65 | 1018.9 |
| 20260901224423 | 68 | 249 | 0.0 | 0.0 | 0.00 | 0.00 | 0.00 | 64 | 1018.7 |
| 20260901223924 | 68 | 250 | 0.0 | 0.0 | 0.00 | 0.00 | 0.00 | 64 | 1018.7 |
| 20260901223645 | 68 | 249 | 0.0 | 0.0 | 0.00 | 0.00 | 0.00 | 63 | 1018.7 |